This demonstration page uses our WeatherBlox Daily Observations layout. Learn more.

Left ArrowRight Arrow

41.86663, -103.66717

Hourly Observations for September 20, 2016

Temp ( °F °C ) Dew Point ( °F °C ) Humidity (%) Winds ( mph kmh ) Pressure ( in mb ) Visibility ( mi km ) Precip ( " mm )
12:53 am 00:53 Clear 60 15.6 49 9.4 67 67 E 9 15 29.96 1014 10 16 0.00 0.00
1:53 am 01:53 Clear 57 13.9 49 9.4 74 74 E 8 13 29.95 1014 10 16 0.00 0.00
2:53 am 02:53 Clear 56 13.3 50 10 81 81 ESE 12 19 29.93 1014 10 16 0.00 0.00
3:53 am 03:53 Clear 53 11.7 49 9.4 86 86 E 8 13 29.93 1014 10 16 0.00 0.00
4:53 am 04:53 Clear 52 11.1 48 8.9 86 86 Calm 29.95 1014 10 16 0.00 0.00
5:53 am 05:53 Clear 50 10 47 8.3 89 89 Calm 29.97 1015 10 16 0.00 0.00
6:53 am 06:53 Sunny 49 9.4 45 7.2 86 86 NNE 5 7 29.99 1016 10 16 0.00 0.00
7:53 am 07:53 Sunny 55 12.8 49 9.4 80 80 Calm 29.99 1016 10 16 0.00 0.00
8:53 am 08:53 Sunny 61 16.1 50 10 67 67 W 5 7 29.99 1016 10 16 0.00 0.00
9:53 am 09:53 Sunny 68 20 47 8.3 47 47 VRB 5 7 29.98 1015 10 16 0.00 0.00
10:53 am 10:53 Sunny 73 22.8 46 7.8 38 38 WSW 6 9 29.96 1015 10 16 0.00 0.00
11:53 am 11:53 Sunny 77 25 42 5.6 29 29 W 5 7 29.95 1014 10 16 0.00 0.00
12:53 pm 12:53 Sunny 84 28.9 41 5 22 22 ESE 3 6 29.92 1013 10 16 0.00 0.00
1:53 pm 13:53 Sunny 88 31.1 35 1.7 15 15 ESE 5 7 29.90 1012 10 16 0.00 0.00
2:53 pm 14:53 Sunny 88 31.1 38 3.3 17 17 SE 8 13 29.88 1012 10 16 0.00 0.00
3:53 pm 15:53 Sunny 90 32.2 41 5 18 18 E 10 17 29.86 1011 10 16 0.00 0.00
4:53 pm 16:53 Sunny 87 30.6 46 7.8 24 24 E 10 17 29.86 1011 10 16 0.00 0.00
5:53 pm 17:53 Sunny 81 27.2 47 8.3 30 30 ESE 9 15 29.88 1012 10 16 0.00 0.00
6:53 pm 18:53 Sunny 75 23.9 46 7.8 36 36 ESE 8 13 29.89 1012 10 16 0.00 0.00
7:53 pm 19:53 Clear 70 21.1 48 8.9 46 46 ESE 6 9 29.90 1012 10 16 0.00 0.00
8:53 pm 20:53 Clear 67 19.4 49 9.4 53 53 E 8 13 29.90 1013 10 16 0.00 0.00
9:53 pm 21:53 Clear 66 18.9 49 9.4 54 54 ENE 3 6 29.88 1012 10 16 0.00 0.00
10:53 pm 22:53 Clear 65 18.3 48 8.9 54 54 ENE 6 9 29.87 1011 10 16 0.00 0.00
11:53 pm 23:53 Clear 63 17.2 48 8.9 58 58 ENE 6 9 29.85 1011 10 16 0.00 0.00

Powered by AerisWeather